Weather History for Troy, MI

Change the Weather History Date:

Wednesday, October 9, 2013

  Actual Average (KDET) Record (KDET)
Temperature  
Mean Temperature 58 °F -  
Max Temperature 71 °F 61 °F 98 °F (2003)
Min Temperature 46 °F 47 °F 31 °F (1989)
Degree Days  
Heating Degree Days 6    
Growing Degree Days 8 (Base 50)    
Moisture  
Dew Point 45 °F    
Average Humidity 67    
Maximum Humidity 91    
Minimum Humidity 36    
Precipitation  
Precipitation 0.00 in - - ()
Sea Level Pressure  
Sea Level Pressure 30.30 in    
Wind  
Wind Speed 1 mph (ESE)    
Max Wind Speed 8 mph    
Max Gust Speed -    
Visibility 10 miles    
Events      
Averages and records for this station are not official NWS values.
T = Trace of Precipitation, MM = Missing Value Source: NWS Daily Summary

Daily Weather History Graph

Daily Weather History Graph

Search for Another Location

Airport:

Trip Planner

Search our weather history database for the weather conditions in past years. The results will help you decide how hot, cold, wet, or windy it might be!

Date:

Astronomy

Oct. 09, 2013 Rise Set
Actual Time 7:39 AM EDT 6:59 PM EDT
Civil Twilight 7:10 AM EDT 7:28 PM EDT
Nautical Twilight 6:38 AM EDT 8:00 PM EDT
Astronomical Twilight 6:05 AM EDT 8:33 PM EDT
Moon 12:38 PM EDT (10/9) 10:28 PM EDT (10/9)
Length of Visible Light 12h 17m
Length of Day
11h 20m
Waxing Crescent, 25% of the Moon is Illuminated
Oct 9
Waxing Crescent
Oct 11
First Quarter
Oct 18
Full
Oct 26
Last Quarter
Nov 3
New

Hourly Weather History & Observations

Time (EDT) Temp. Dew Point Humidity Pressure Visibility Wind Dir Wind Speed Gust Speed Precip Events Conditions
12:14 AM 51.4 °F 44.6 °F 77% 30.31 in 10.0 mi Calm Calm - N/A   Clear
12:34 AM 50.5 °F 44.6 °F 80% 30.31 in 10.0 mi Calm Calm - N/A   Clear
12:55 AM 50.0 °F 44.6 °F 82% 30.31 in 10.0 mi Calm Calm - N/A   Clear
1:14 AM 50.0 °F 44.6 °F 82% 30.30 in 10.0 mi Calm Calm - N/A   Clear
1:35 AM 49.6 °F 44.4 °F 82% 30.30 in 10.0 mi Calm Calm - N/A   Clear
1:54 AM 49.1 °F 44.6 °F 84% 30.30 in 10.0 mi Calm Calm - N/A   Clear
2:15 AM 48.7 °F 44.6 °F 86% 30.30 in 10.0 mi Calm Calm - N/A   Clear
2:34 AM 48.7 °F 44.1 °F 84% 30.30 in 10.0 mi Calm Calm - N/A   Clear
2:55 AM 48.2 °F 44.1 °F 86% 30.30 in 10.0 mi Calm Calm - N/A   Clear
3:14 AM 48.2 °F 43.9 °F 85% 30.30 in 10.0 mi Calm Calm - N/A   Clear
3:35 AM 48.2 °F 44.1 °F 86% 30.30 in 10.0 mi Calm Calm - N/A   Clear
3:55 AM 48.2 °F 44.6 °F 87% 30.30 in 10.0 mi Calm Calm - N/A   Clear
4:15 AM 48.2 °F 43.7 °F 84% 30.30 in 10.0 mi Calm Calm - N/A   Clear
4:35 AM 47.7 °F 43.9 °F 87% 30.31 in 10.0 mi Calm Calm - N/A   Clear
4:54 AM 47.1 °F 43.3 °F 87% 30.31 in 10.0 mi Calm Calm - N/A   Clear
5:15 AM 47.1 °F 43.3 °F 87% 30.31 in 10.0 mi Calm Calm - N/A   Clear
5:35 AM 46.8 °F 43.5 °F 88% 30.31 in 10.0 mi Calm Calm - N/A   Clear
5:54 AM 47.3 °F 43.7 °F 87% 30.31 in 10.0 mi Calm Calm - N/A   Clear
6:15 AM 46.9 °F 43.9 °F 89% 30.32 in 10.0 mi Calm Calm - N/A   Clear
6:35 AM 46.8 °F 43.3 °F 88% 30.32 in 10.0 mi Calm Calm - N/A   Clear
6:54 AM 46.6 °F 43.5 °F 89% 30.32 in 10.0 mi Calm Calm - N/A   Clear
7:15 AM 46.6 °F 43.7 °F 90% 30.32 in 10.0 mi Calm Calm - N/A   Clear
7:34 AM 46.6 °F 43.9 °F 90% 30.33 in 10.0 mi Calm Calm - N/A   Clear
7:55 AM 46.4 °F 43.9 °F 91% 30.33 in 10.0 mi Calm Calm - N/A   Clear
8:14 AM 47.5 °F 44.6 °F 90% 30.33 in 10.0 mi Calm Calm - N/A   Clear
8:35 AM 49.5 °F 46.2 °F 89% 30.34 in 10.0 mi Calm Calm - N/A   Clear
8:55 AM 51.6 °F 47.8 °F 87% 30.34 in 10.0 mi Calm Calm - N/A   Clear
9:14 AM 53.2 °F 48.9 °F 85% 30.34 in 10.0 mi Calm Calm - N/A   Clear
9:35 AM 54.5 °F 49.6 °F 84% 30.34 in 10.0 mi Calm Calm - N/A   Clear
9:54 AM 56.3 °F 50.7 °F 82% 30.35 in 10.0 mi Calm Calm - N/A   Clear
10:14 AM 58.3 °F 52.0 °F 80% 30.35 in 10.0 mi Calm Calm - N/A   Clear
10:35 AM 60.8 °F 52.9 °F 75% 30.35 in 10.0 mi Calm Calm - N/A   Clear
10:54 AM 62.8 °F 53.2 °F 71% 30.35 in 10.0 mi Calm Calm - N/A   Clear
11:14 AM 64.6 °F 52.9 °F 66% 30.35 in 10.0 mi East 4.6 mph - N/A   Clear
11:35 AM 65.5 °F 52.3 °F 62% 30.35 in 10.0 mi ESE 4.6 mph - N/A   Clear
12:15 PM 67.3 °F 46.9 °F 48% 30.34 in 10.0 mi ESE 3.5 mph - N/A   Clear
12:34 PM 68.5 °F 45.7 °F 44% 30.34 in 10.0 mi Calm Calm - N/A   Clear
12:54 PM 69.4 °F 47.1 °F 45% 30.33 in 10.0 mi Calm Calm - N/A   Clear
1:14 PM 68.9 °F 45.7 °F 43% 30.32 in 10.0 mi ESE 3.5 mph - N/A   Clear
1:34 PM 69.6 °F 45.7 °F 42% 30.32 in 10.0 mi SE 6.9 mph - N/A   Clear
1:54 PM 69.8 °F 44.2 °F 40% 30.31 in 10.0 mi East 6.9 mph - N/A   Clear
2:14 PM 70.7 °F 45.0 °F 40% 30.30 in 10.0 mi SE 5.8 mph - N/A   Clear
2:35 PM 70.9 °F 46.6 °F 42% 30.30 in 10.0 mi SSE 8.1 mph - N/A   Clear
2:54 PM 71.4 °F 46.2 °F 41% 30.30 in 10.0 mi SE 3.5 mph - N/A   Clear
3:15 PM 70.9 °F 45.9 °F 41% 30.29 in 10.0 mi SE 5.8 mph - N/A   Clear
3:34 PM 70.9 °F 44.8 °F 39% 30.29 in 10.0 mi East 6.9 mph - N/A   Clear
3:55 PM 70.9 °F 46.8 °F 42% 30.28 in 10.0 mi East 4.6 mph - N/A   Clear
4:14 PM 71.1 °F 44.4 °F 38% 30.28 in 10.0 mi ESE 6.9 mph - N/A   Clear
4:35 PM 70.7 °F 43.5 °F 37% 30.27 in 10.0 mi East 6.9 mph - N/A   Clear
4:54 PM 70.9 °F 42.3 °F 36% 30.27 in 10.0 mi ESE 5.8 mph - N/A   Clear
5:15 PM 70.3 °F 42.1 °F 36% 30.27 in 10.0 mi SE 4.6 mph - N/A   Clear
5:34 PM 69.8 °F 42.1 °F 37% 30.27 in 10.0 mi ESE 6.9 mph - N/A   Clear
5:55 PM 68.5 °F 41.4 °F 37% 30.27 in 10.0 mi East 8.1 mph - N/A   Clear
6:14 PM 68.2 °F 41.0 °F 37% 30.27 in 10.0 mi ESE 4.6 mph - N/A   Clear
6:35 PM 66.9 °F 39.9 °F 37% 30.27 in 10.0 mi ESE 5.8 mph - N/A   Clear
6:54 PM 65.3 °F 40.8 °F 41% 30.26 in 10.0 mi ESE 4.6 mph - N/A   Clear
7:15 PM 63.3 °F 42.8 °F 47% 30.27 in 10.0 mi ESE 4.6 mph - N/A   Clear
7:34 PM 63.0 °F 43.2 °F 48% 30.27 in 10.0 mi ESE 4.6 mph - N/A   Clear
7:55 PM 61.9 °F 43.9 °F 52% 30.27 in 10.0 mi ESE 3.5 mph - N/A   Clear
8:15 PM 61.0 °F 43.7 °F 53% 30.27 in 10.0 mi SE 4.6 mph - N/A   Clear
8:34 PM 59.7 °F 43.9 °F 56% 30.27 in 10.0 mi SE 3.5 mph - N/A   Clear
8:55 PM 58.3 °F 44.1 °F 59% 30.27 in 10.0 mi Calm Calm - N/A   Clear
9:15 PM 57.2 °F 44.6 °F 63% 30.27 in 10.0 mi Calm Calm - N/A   Clear
9:34 PM 55.9 °F 44.6 °F 66% 30.27 in 10.0 mi Calm Calm - N/A   Clear
9:55 PM 55.4 °F 45.0 °F 68% 30.27 in 10.0 mi Calm Calm - N/A   Clear
10:15 PM 54.7 °F 45.5 °F 71% 30.27 in 10.0 mi Calm Calm - N/A   Clear
10:34 PM 54.9 °F 45.5 °F 71% 30.27 in 10.0 mi Calm Calm - N/A   Clear
10:55 PM 54.5 °F 45.3 °F 71% 30.27 in 10.0 mi Calm Calm - N/A   Clear
11:14 PM 54.0 °F 46.4 °F 76% 30.27 in 10.0 mi Calm Calm - N/A   Clear
11:35 PM 53.6 °F 46.8 °F 78% 30.27 in 10.0 mi North 3.5 mph - N/A   Clear
11:55 PM 53.4 °F 47.3 °F 80% 30.27 in 10.0 mi Calm Calm - N/A   Clear